Weather History for Georgetown, DE

Change the Weather History Date:

Monday, January 14, 2013

  Actual Average Record
Temperature  
Mean Temperature 55 °F 35 °F  
Max Temperature 64 °F 43 °F 69 °F (1950)
Min Temperature 46 °F 26 °F 6 °F (1981)
Degree Days  
Heating Degree Days 10 30  
Month to date heating degree days 314 417  
Since 1 July heating degree days 1728 1999  
Cooling Degree Days 0 0  
Month to date cooling degree days 0 0  
Year to date cooling degree days 0 0  
Growing Degree Days 5 (Base 50)    
Moisture  
Dew Point 52 °F    
Average Humidity 82    
Maximum Humidity 93    
Minimum Humidity 71    
Precipitation  
Precipitation 0.18 in 0.09 in 1.68 in (1978)
Month to date precipitation 0.28 1.33  
Year to date precipitation 0.28 1.33  
Sea Level Pressure  
Sea Level Pressure 30.12 in    
Wind  
Wind Speed 7 mph (WNW)    
Max Wind Speed 16 mph    
Max Gust Speed 23 mph    
Visibility 8 miles    
Events Rain    
T = Trace of Precipitation, MM = Missing Value Source: NWS Daily Summary

Daily Weather History Graph

Daily Weather History Graph

Search for Another Location

Airport:

Trip Planner

Search our weather history database for the weather conditions in past years. The results will help you decide how hot, cold, wet, or windy it might be!

Date:

Astronomy

Jan. 14, 2013 Rise Set
Actual Time 7:18 AM EST 5:03 PM EST
Civil Twilight 6:49 AM EST 5:32 PM EST
Nautical Twilight 6:16 AM EST 6:05 PM EST
Astronomical Twilight 5:44 AM EST 6:37 PM EST
Moon 8:53 AM EST (1/14) 8:43 PM EST (1/14)
Length of Visible Light 10h 43m
Length of Day
9h 45m
Waxing Crescent, 11% of the Moon is Illuminated
Jan 14
Waxing Crescent
Jan 18
First Quarter
Jan 26
Full
Feb 3
Last Quarter
Feb 10
New

Hourly Weather History & Observations

Time (EST) Temp. Windchill Dew Point Humidity Pressure Visibility Wind Dir Wind Speed Gust Speed Precip Events Conditions
12:24 AM 57.2 °F - 55.4 °F 94% 30.02 in 3.0 mi SSW 8.1 mph - N/A   Overcast
12:54 AM 57.0 °F - 55.9 °F 96% 30.03 in 5.0 mi SSW 6.9 mph - N/A   Overcast
1:54 AM 57.0 °F - 55.0 °F 93% 30.03 in 7.0 mi SSW 6.9 mph - N/A   Clear
2:54 AM 61.0 °F - 57.0 °F 87% 30.04 in 10.0 mi SSW 9.2 mph - N/A   Clear
3:54 AM 62.1 °F - 57.0 °F 84% 30.02 in 10.0 mi SW 12.7 mph - N/A   Clear
5:54 AM 63.0 °F - 57.0 °F 81% 30.00 in 10.0 mi SW 13.8 mph - N/A   Partly Cloudy
6:54 AM 63.0 °F - 57.0 °F 81% 30.04 in 10.0 mi WSW 11.5 mph 19.6 mph N/A   Partly Cloudy
7:54 AM 63.0 °F - 57.0 °F 81% 30.05 in 10.0 mi SW 9.2 mph - N/A   Scattered Clouds
8:54 AM 63.0 °F - 57.0 °F 81% 30.09 in 10.0 mi SW 12.7 mph - N/A   Mostly Cloudy
9:54 AM 63.0 °F - 57.9 °F 84% 30.09 in 10.0 mi WSW 8.1 mph - 0.00 in   Overcast
10:54 AM 64.0 °F - 57.9 °F 80% 30.11 in 10.0 mi WNW 8.1 mph - 0.00 in Rain Light Rain
11:20 AM 62.6 °F - 57.2 °F 82% 30.11 in 4.0 mi WNW 6.9 mph - 0.00 in Rain Light Rain
11:40 AM 62.6 °F - 59.0 °F 88% 30.12 in 4.0 mi Variable 6.9 mph - 0.00 in Rain Light Rain
11:51 AM 60.8 °F - 57.2 °F 88% 30.12 in 7.0 mi North 6.9 mph 19.6 mph 0.00 in Rain Light Rain
11:54 AM 61.0 °F - 57.0 °F 87% 30.12 in 7.0 mi NNW 6.9 mph - 0.00 in Rain Light Rain
12:22 PM 60.8 °F - 53.6 °F 77% 30.11 in 7.0 mi North 10.4 mph - 0.00 in Rain Light Rain
12:54 PM 57.0 °F - 51.1 °F 81% 30.13 in 5.0 mi Calm Calm - N/A Rain Rain
1:54 PM 57.9 °F - 51.1 °F 78% 30.12 in 10.0 mi North 5.8 mph - N/A   Mostly Cloudy
2:54 PM 57.0 °F - 48.9 °F 74% 30.12 in 10.0 mi ESE 8.1 mph - N/A Rain Light Rain
3:54 PM 57.0 °F - 48.9 °F 74% 30.17 in 10.0 mi North 3.5 mph - N/A   Overcast
5:54 PM 54.0 °F - 46.9 °F 77% 30.17 in 10.0 mi Calm Calm - N/A   Overcast
6:54 PM 53.1 °F - 45.0 °F 74% 30.20 in 10.0 mi NW 3.5 mph - N/A   Overcast
7:54 PM 52.0 °F - 43.0 °F 71% 30.21 in 10.0 mi North 5.8 mph - N/A   Overcast
8:54 PM 50.0 °F - 43.0 °F 77% 30.23 in 10.0 mi North 4.6 mph - N/A   Overcast
9:54 PM 48.9 °F - 41.0 °F 74% 30.22 in 9.0 mi North 9.2 mph - N/A Rain Rain
10:54 PM 48.0 °F - 41.0 °F 77% 30.24 in 10.0 mi North 6.9 mph - N/A Rain Light Rain
11:45 PM 46.4 °F 41.9 °F 41.0 °F 81% 30.24 in 7.0 mi North 9.2 mph - N/A Rain Light Rain
11:54 PM 46.0 °F 41.0 °F 41.0 °F 83% 30.24 in 8.0 mi North 10.4 mph 17.3 mph N/A Rain Light Rain